Location: Castillon
(43.0896°N, 0.2156°E)
Time: 10:44:44
(UTC+00:00)

Cosmos 1544 Rocket - Pass Details

Date: 23 October 2021
Orbit: 603 x 631 km, 82.5° (Epoch: 08 December)

Event Time Altitude Azimuth Distance (km) Brightness Sun altitude
Rises 04:30:19 0° 3° (N) 2,912 7.1 -21.1°
Reaches altitude 10° 04:32:52 10° 16° (NNE) 1,995 6.4 -20.7°
Maximum altitude 04:36:36 26° 73° (ENE) 1,216 5.8 -20.0°
Drops below altitude 10° 04:40:17 10° 131° (SE) 1,967 6.8 -19.3°
Sets 04:42:46 0° 144° (SE) 2,862 7.5 -18.9°
